Progress Software ROE 2010-2024 | PRGS

Current and historical return on equity (ROE) values for Progress Software (PRGS) over the last 10 years. Return on equity can be defined as the amount of net income returned as a percentage of shareholders equity. Return on equity measures a corporation's profitability by revealing how much profit a company generates with the money shareholders have invested.
Progress Software ROE - Return on Equity Historical Data
Date TTM Net Income Shareholder's Equity Return on Equity
2024-02-29 $0.07B $0.46B 15.45%
2023-11-30 $0.07B $0.46B 16.12%
2023-08-31 $0.08B $0.45B 18.85%
2023-05-31 $0.08B $0.42B 20.53%
2023-02-28 $0.10B $0.41B 25.53%
2022-11-30 $0.10B $0.40B 25.23%
2022-08-31 $0.09B $0.37B 22.65%
2022-05-31 $0.10B $0.37B 24.53%
2022-02-28 $0.08B $0.37B 20.74%
2021-11-30 $0.08B $0.41B 20.68%
2021-08-31 $0.08B $0.40B 22.44%
2021-05-31 $0.08B $0.37B 20.94%
2021-02-28 $0.08B $0.35B 22.17%
2020-11-30 $0.08B $0.35B 23.15%
2020-08-31 $0.06B $0.37B 16.69%
2020-05-31 $0.05B $0.34B 14.12%
2020-02-29 $0.04B $0.33B 11.64%
2019-11-30 $0.03B $0.33B 8.09%
2019-08-31 $0.04B $0.33B 12.51%
2019-05-31 $0.04B $0.32B 12.79%
2019-02-28 $0.05B $0.31B 14.46%
2018-11-30 $0.05B $0.32B 15.55%
2018-08-31 $0.05B $0.31B 14.65%
2018-05-31 $0.05B $0.31B 12.91%
2018-02-28 $0.04B $0.35B 11.40%
2017-11-30 $0.03B $0.38B 7.24%
2017-08-31 $-0.05B $0.39B -13.69%
2017-05-31 $-0.06B $0.39B -13.56%
2017-02-28 $-0.06B $0.39B -13.49%
2016-11-30 $-0.06B $0.41B -11.69%
2016-08-31 $0.01B $0.50B 1.77%
2016-05-31 $-0.00B $0.49B -0.58%
2016-02-29 $-0.00B $0.52B -0.76%
2015-11-30 $-0.01B $0.52B -1.51%
2015-08-31 $0.02B $0.53B 2.81%
2015-05-31 $0.03B $0.52B 5.64%
2015-02-28 $0.04B $0.54B 6.97%
2014-11-30 $0.05B $0.54B 9.28%
2014-08-31 $0.05B $0.52B 9.61%
2014-05-31 $0.06B $0.52B 12.33%
2014-02-28 $0.06B $0.53B 10.48%
2013-11-30 $0.08B $0.51B 13.82%
2013-08-31 $0.10B $0.52B 16.73%
2013-05-31 $0.08B $0.54B 12.55%
2013-02-28 $0.07B $0.60B 11.04%
2012-11-30 $0.05B $0.64B 7.15%
2012-08-31 $0.02B $0.68B 3.52%
2012-05-31 $0.03B $0.66B 3.99%
2012-02-29 $0.05B $0.65B 6.90%
2011-11-30 $0.06B $0.63B 8.80%
2011-08-31 $0.07B $0.67B 9.89%
2011-05-31 $0.07B $0.72B 10.03%
2011-02-28 $0.07B $0.72B 10.51%
2010-11-30 $0.05B $0.69B 7.63%
2010-08-31 $0.04B $0.63B 7.38%
2010-05-31 $0.04B $0.63B 7.21%
2010-02-28 $0.03B $0.57B 5.38%
2009-11-30 $0.03B $0.56B 6.55%
Sector Industry Market Cap Revenue
Computer and Technology Computer Software $2.232B $0.694B
Progress offers the leading platform for developing and deploying mission-critical business applications. Progress empowers enterprises and ISVs to build and deliver cognitive-first applications that harness big data to derive business insights and competitive advantage. Progress offers leading technologies for easily building powerful user interfaces across any type of device, a reliable, scalable and secure backend platform to deploy modern applications, leading data connectivity to all sources, and award-winning predictive analytics that brings the power of machine learning to any organization.
Stock Name Country Market Cap PE Ratio
Microsoft (MSFT) United States $3161.257B 36.83
Oracle (ORCL) United States $342.243B 27.86
Salesforce (CRM) United States $277.884B 46.45
Adobe (ADBE) United States $217.141B 36.31
Intuit (INTU) United States $187.642B 62.92
Synopsys (SNPS) United States $87.593B 63.19
Cadence Design Systems (CDNS) United States $79.591B 75.77
Dassault Systemes SA (DASTY) France $55.184B 35.85
Autodesk (ADSK) United States $47.706B 46.61
MicroStrategy (MSTR) United States $30.637B 0.00
ANSYS (ANSS) United States $28.686B 53.08
PTC (PTC) United States $22.025B 58.41
SS&C Technologies Holdings (SSNC) United States $15.695B 14.86
Manhattan Associates (MANH) United States $14.200B 75.37
Open Text (OTEX) Canada $8.494B 8.55
Descartes Systems Group (DSGX) Canada $8.478B 74.21
Trend Micro (TMICY) Japan $6.723B 48.69
Pegasystems (PEGA) United States $5.453B 48.22
CommVault Systems (CVLT) United States $4.798B 78.41
Blackbaud (BLKB) United States $4.109B 35.38
ACI Worldwide (ACIW) United States $3.962B 18.83
Verint Systems (VRNT) United States $2.014B 18.77
Sapiens (SPNS) Israel $1.910B 26.04
BlackBerry (BB) Canada $1.776B 0.00
PROS Holdings (PRO) United States $1.524B 0.00
Simulations Plus (SLP) United States $1.000B 73.59
Rand Worldwide (RWWI) United States $0.652B 0.00
Magic Software Enterprises (MGIC) Israel $0.563B 11.94
American Software (AMSWA) United States $0.349B 29.22
Canaan (CAN) China $0.285B 0.00
OptimizeRx (OPRX) United States $0.239B 0.00
Rigetti Computing (RGTI) United States $0.180B 0.00
Icad Inc (ICAD) United States $0.044B 0.00
Neonode (NEON) Sweden $0.036B 0.00
NetSol Technologies (NTWK) United States $0.031B 0.00
Smith Micro Software (SMSI) United States $0.027B 0.00
Wetouch Technology (WETH) $0.024B 0.00
Hanryu Holdings (HRYU) South Korea $0.023B 0.00
GSE Systems (GVP) United States $0.011B 0.00
SAP SE (SAP) Germany $0.000B 49.95